{"data":{"norad_id":60091,"intl_designator":"2024-117A","name":"STARLINK-31441","alt_names":[],"object_type":"PAYLOAD","status":"ACTIVE","operator":null,"country":"US","launch_date":"2024-06-23","launch_site_code":"AFETR","launch_vehicle":null,"mission":null,"orbit_class":"UNKNOWN","rcs_meters":null,"size_class":null,"mass_kg":null,"dimensions":null,"purposes":["comms"],"wikipedia_slug":null,"has_3d_model":false,"image_url":null,"decayed_at":null,"tle_current":{"epoch":"2026-09-21T02:59:05.209440Z","epoch_age_seconds":123445,"freshness":"FRESH","line1":"1 60091U 24117A   26264.12436585 -.00000098  00000+0  82251-5 0  9995","line2":"2 60091  53.1590 206.8530 0001317  84.6862 275.4290 15.34383799126843","mean_motion":15.34383799,"eccentricity":0.0001317,"inclination_deg":53.159,"raan_deg":206.853,"arg_perigee_deg":84.6862,"mean_anomaly_deg":275.429,"bstar":8.2251e-6,"rev_number":12684,"period_min":93.848748985651,"perigee_km":461.85044841559,"apogee_km":463.65233841841,"semimajor_km":6840.888393417,"source":"CELESTRAK","updated_at":"2026-09-22T09:00:49.149249Z"}}}